Regional Weather Roundup
Issued by NWS Green Bay, WI

Home | Current Version | Previous Version | Text Only | Print | Product List | Glossary On
Versions: 1 2 3 4 5 6 7 8 9 10 11 12 13 14 15 16 17 18 19 20 21 22 23 24 25 26 27 28 29 30 31 32 33 34 35 36 37 38 39 40 41 42 43 44 45 46 47 48 49 50
000
ASUS43 KGRB 222001
RWRGRB

NORTH-CENTRAL AND NORTHEAST WISCONSIN REGIONAL WEATHER ROUNDUP
NATIONAL WEATHER SERVICE GREEN BAY WI
300 PM CDT SAT JUL 22 2017

WIZ005-009-010>012-018-019-222100-
NORTH CENTRAL WISCONSIN

CITY           SKY/WX    TMP DP  RH WIND       PRES   REMARKS
IRONWOOD       MOSUNNY   76  66  71 NW8       29.82F
MANITOWISH WTR NOT AVBL
ARBOR VITAE    NOT AVBL
EAGLE RIVER    NOT AVBL
LAND O LAKES   NOT AVBL
RHINELANDER    PTSUNNY   83  66  56 NW8       29.83S
PHILLIPS       MOSUNNY   82  68  62 SW12      29.81S
ANTIGO         NOT AVBL
TOMAHAWK       NOT AVBL
MERRILL        MOSUNNY   85  67  54 W10G16    29.81F
$$

WIZ013-073-222100-
NORTHEAST WISCONSIN

CITY           SKY/WX    TMP DP  RH WIND       PRES   REMARKS
IRON MOUNTAIN  MOSUNNY   82  65  56 S7        29.79F
MARINETTE      PTSUNNY   78  66  66 SE9       29.80F
$$

WIZ017-030-035>037-045-222100-
CENTRAL WISCONSIN

CITY           SKY/WX    TMP DP  RH WIND       PRES   REMARKS
MEDFORD        NOT AVBL
WAUSAU         PTSUNNY   84  65  52 W7        29.80S
MOSINEE        PTSUNNY   82  66  57 SW5       29.83F
MARSHFIELD     SUNNY     83  66  56 VRB5      29.82F
WISC RAPIDS    MOSUNNY   84  70  62 VRB5      29.83F
STEVENS POINT  NOT AVBL
WAUPACA        NOT AVBL
SHAWANO        PTSUNNY   84  68  57 SE6       29.80S
CLINTONVILLE   NOT AVBL
WAUTOMA        MOSUNNY   82  69  64 NW3       29.82S
$$

WIZ038-039-048-051-222100-
FOX VALLEY

CITY           SKY/WX    TMP DP  RH WIND       PRES   REMARKS
NWS GREEN BAY  SUNNY     82  70  66 CALM      29.80F
APPLETON       PTSUNNY   81  63  54 VRB5      29.80F
OSHKOSH        PTSUNNY   79  69  71 SE6       29.81S
FOND DU LAC    PTSUNNY   81  68  64 CALM      29.82S
$$

WIZ022-050-052-222100-
EAST CENTRAL WISCONSIN

CITY           SKY/WX    TMP DP  RH WIND       PRES   REMARKS
EPHRAIM        NOT AVBL
WASHINGTON ISL NOT AVBL
STURGEON BAY     N/A     77  65  66 CALM      29.82F
MANITOWOC      NOT AVBL
SHEBOYGAN      PTSUNNY   78  72  81 NE9       29.81S
$$

LMZ563-521-522-541>543-222100-
LAKESHORE

STATION/POSITION TIME  TEMP    WIND        PRES    VSBY  WAVE
                       AIR SEA DIR/SP/G                  HT/PER
                 (UTC) (F)     (DEG/KT/KT) (MB)    (MI)  (FT/S)
SHEBOYGAN LKSHOR 1900   69      80/  4/  5 1009.1F
KEWAUNEE LKSHORE 1930   72      40/  5/  5 1009.1F
NORTHPORT PIER   1940   74     110/  3/  5 1009.5S
N MID LAKE BUOY  1850   69 68   50/  4/  4 1010.2F         0
S GREEN BAY BUOY 1930   74 75   60/  4/  6 1009.7F
SISTER BAY LKSHO 1902   87        CALM       N/A
CHAMBERS ISLAND  1940   78     330/  3/  6 1009.1F
MENOMINEE LKSHOR 1930   74     130/  5/  6 1009.4F
$$




USA.gov is the U.S. government's official web portal to all federal, state and local government web resources and services.